This is the latest recevied weather packets stored in our database for station/object DG1JLA-3. If no packets are shown the sender has not sent any weather packets the latest 1 day(s).
| Time | Temp. | Humidity | Pressure | Rain* | Wind** | Luminosity | Snow |
|---|---|---|---|---|---|---|---|
| 1777977291 | 15.56° C | 82% | 1010.7 hPa | 0 mm | 0.45 m/s, 92° | - | - |
| 1777976991 | 15.56° C | 82% | 1010.7 hPa | 0 mm | 0.45 m/s, 290° | - | - |
| 1777976691 | 15.56° C | 82% | 1010.6 hPa | 0 mm | 0 m/s | - | - |
| 1777976391 | 15.56° C | 84% | 1010.7 hPa | 0 mm | 0 m/s | - | - |
| 1777976091 | 15.56° C | 84% | 1010.6 hPa | 0 mm | 0 m/s | - | - |
| 1777975791 | 15.56° C | 84% | 1010.7 hPa | 0 mm | 0 m/s | - | - |
| 1777975491 | 15.56° C | 84% | 1010.7 hPa | 0 mm | 0 m/s | - | - |
| 1777975191 | 15.56° C | 84% | 1010.6 hPa | 0 mm | 0.45 m/s, 8° | - | - |
| 1777974891 | 15.56° C | 83% | 1010.8 hPa | 0 mm | 0.45 m/s, 358° | - | - |
| 1777974591 | 15.56° C | 83% | 1010.6 hPa | 0 mm | 0.45 m/s, 27° | - | - |
| 1777974291 | 15.56° C | 83% | 1010.8 hPa | 0 mm | 0.45 m/s, 37° | - | - |
| 1777973991 | 16.11° C | 82% | 1010.8 hPa | 0 mm | 0.89 m/s, 18° | - | - |
| 1777973691 | 16.11° C | 82% | 1010.8 hPa | 0 mm | 0.45 m/s, 353° | - | - |
| 1777973391 | 16.11° C | 82% | 1010.9 hPa | 0 mm | 0 m/s | - | - |
| 1777973091 | 16.11° C | 82% | 1010.9 hPa | 0 mm | 0.45 m/s, 228° | - | - |
| 1777972791 | 16.11° C | 83% | 1010.9 hPa | 0 mm | 0.89 m/s, 25° | - | - |
| 1777972491 | 16.11° C | 81% | 1011.3 hPa | 0 mm | 0.45 m/s, 34° | - | - |
| 1777972191 | 16.11° C | 82% | 1011 hPa | 0 mm | 0.45 m/s, 18° | - | - |
| 1777971891 | 16.11° C | 82% | 1010.8 hPa | 0 mm | 0.45 m/s, 328° | - | - |
| 1777971591 | 15.56° C | 83% | 1011 hPa | 0 mm | 0.45 m/s, 48° | - | - |
| 1777971291 | 15.56° C | 83% | 1011.1 hPa | 0 mm | 0.45 m/s, 120° | - | - |
| 1777970991 | 15.56° C | 84% | 1011.1 hPa | 0 mm | 0 m/s | - | - |
| 1777970691 | 15° C | 84% | 1011.2 hPa | 0 mm | 0 m/s | - | - |
| 1777970391 | 15° C | 84% | 1011.2 hPa | 0 mm | 0 m/s | - | - |
| 1777970091 | 15° C | 84% | 1011.2 hPa | 0 mm | 0 m/s | - | - |
* Rain latest hour (hover to see other rain measurements)
** Current wind speed in m/s (hover to see current wind gust speed)